EW5040 Weather Reports


Display with metric or nautical units.
time (UTC)temp
F
wind
direction
speed
MPH
gust
MPH
rain 1hr
in
rain 24hr
in
rain mn
in
humidity
%
barometer
mb
20260509181517 63 219 3.0 12.0 0.00 0.00 0.00 74 1004.6
20260509180020 63 126 5.0 16.0 0.00 0.00 0.00 73 1004.9
20260509174514 62 245 5.0 15.0 0.00 0.00 0.00 74 1005.0
20260509173012 62 246 5.0 13.0 0.00 0.00 0.00 73 1005.3
20260509171511 62 188 3.0 15.0 0.00 0.00 0.00 77 1005.6
20260509170006 61 182 5.0 13.0 0.00 0.00 0.00 76 1005.6
20260509164503 61 203 5.0 12.0 0.00 0.00 0.00 77 1005.7
20260509163001 60 252 2.0 9.0 0.00 0.00 0.00 77 1005.9
20260509161603 59 186 4.0 14.0 0.00 0.00 0.00 77 1006.1
20260509160100 59 207 1.0 12.0 0.00 0.00 0.00 78 1006.0
20260509154558 59 206 5.0 11.0 0.00 0.01 0.00 78 1006.1
20260509153059 59 242 5.0 10.0 0.00 0.01 0.00 75 1006.3
20260509151557 61 187 4.0 10.0 0.00 0.01 0.00 77 1006.2
20260509150054 59 154 6.0 10.0 0.00 0.01 0.00 78 1006.2
20260509144547 58 198 3.0 7.0 0.00 0.01 0.00 80 1006.2
20260509143050 58 195 2.0 9.0 0.00 0.01 0.00 83 1006.3
20260509141544 56 162 3.0 8.0 0.00 0.01 0.00 84 1006.3
20260509140046 55 143 5.0 8.0 0.00 0.01 0.00 85 1006.6
20260509134533 55 219 0.0 7.0 0.00 0.01 0.00 86 1006.7
20260509133032 54 160 3.0 9.0 0.00 0.01 0.00 86 1006.7
20260509131536 54 167 3.0 8.0 0.00 0.01 0.00 87 1006.7
20260509130026 53 153 2.0 10.0 0.00 0.01 0.00 90 1006.8
20260509124526 52 159 3.0 7.0 0.00 0.01 0.00 92 1006.9
20260509123025 51 175 4.0 8.0 0.00 0.01 0.00 95 1007.0
20260509121517 50 121 3.0 8.0 0.00 0.01 0.00 97 1007.1
20260509120013 50 200 1.0 6.0 0.00 0.01 0.00 97 1007.1
20260509114508 49 139 2.0 8.0 0.00 0.03 0.00 97 1007.1
20260509113006 48 182 1.0 5.0 0.00 0.03 0.00 97 1007.1
20260509111504 48 142 1.0 3.0 0.00 0.03 0.00 97 1007.0
20260509110100 47 188 1.0 5.0 0.00 0.03 0.00 97 1007.1
20260509104559 46 148 1.0 5.0 0.00 0.05 0.00 97 1007.3
20260509103058 44 173 1.0 4.0 0.00 0.05 0.00 97 1007.2
20260509101548 43 184 0.0 6.0 0.00 0.05 0.00 97 1007.2
20260509100104 42 140 0.0 4.0 0.00 0.05 0.00 97 1007.3
20260509094548 42 153 0.0 5.0 0.00 0.05 0.00 96 1007.2
20260509093043 41 156 0.0 1.0 0.00 0.05 0.00 96 1007.2
20260509091541 41 156 0.0 2.0 0.00 0.05 0.00 96 1007.2
20260509090036 40 156 0.0 2.0 0.00 0.05 0.00 96 1007.2
20260509084534 40 156 0.0 0.0 0.00 0.05 0.00 96 1007.3
20260509083041 40 156 0.0 1.0 0.00 0.05 0.00 95 1007.4
20260509081534 40 156 0.0 1.0 0.00 0.05 0.00 95 1007.5
20260509080033 39 156 0.0 1.0 0.00 0.05 0.00 95 1007.5
20260509074527 39 156 0.0 1.0 0.00 0.05 0.00 95 1007.6
20260509073026 39 156 0.0 0.0 0.00 0.05 0.00 95 1007.8
20260509071524 39 156 0.0 1.0 0.00 0.05 0.00 95 1007.9
20260509070022 39 156 0.0 2.0 0.00 0.05 0.00 94 1008.1
20260509064528 39 156 0.0 0.0 0.00 0.05 0.00 94 1008.1
20260509063018 39 156 0.0 2.0 0.00 0.05 0.00 94 1008.3
20260509061532 38 156 0.0 1.0 0.00 0.05 0.00 93 1008.6
20260509060013 38 156 0.0 1.0 0.00 0.05 0.00 93 1008.6
20260509054510 39 156 0.0 0.0 0.00 0.05 0.00 93 1008.9
20260509053023 39 156 0.0 1.0 0.00 0.05 0.00 93 1009.1
20260509051508 39 156 0.0 0.0 0.00 0.05 0.00 93 1009.3
20260509050009 39 156 0.0 2.0 0.00 0.05 0.00 93 1009.3
20260509044504 39 156 0.0 0.0 0.00 0.05 0.00 92 1009.6
20260509043004 39 156 0.0 0.0 0.00 0.05 0.00 92 1009.6
20260509041501 39 156 0.0 2.0 0.00 0.05 0.00 91 1009.7
20260509040100 39 156 0.0 0.0 0.00 0.05 0.00 89 1009.8
20260509034603 39 156 0.0 0.0 0.00 0.05 0.05 89 1009.9
20260509033057 39 156 0.0 0.0 0.00 0.05 0.05 87 1010.1
20260509031557 40 156 0.0 0.0 0.00 0.05 0.05 86 1010.2
20260509030057 40 156 0.0 0.0 0.00 0.05 0.05 86 1010.3
20260509024556 41 156 0.0 0.0 0.00 0.05 0.05 85 1010.4
20260509023055 41 156 0.0 0.0 0.00 0.05 0.05 83 1010.4
20260509021556 42 156 0.0 0.0 0.00 0.05 0.05 83 1010.4
20260509020055 43 156 0.0 0.0 0.00 0.05 0.05 82 1010.3
20260509014554 44 156 0.0 0.0 0.00 0.05 0.05 80 1010.1
20260509013054 45 156 0.0 0.0 0.00 0.05 0.05 78 1010.0
20260509011554 46 156 0.0 0.0 0.00 0.05 0.05 75 1009.8
20260509010052 47 156 0.0 1.0 0.00 0.05 0.05 73 1010.0
20260509004550 48 156 0.0 0.0 0.00 0.05 0.05 69 1009.8
20260509003049 49 156 0.0 1.0 0.00 0.05 0.05 66 1009.8
20260509001547 50 156 0.0 2.0 0.00 0.05 0.05 61 1009.8
20260509000045 50 156 1.0 6.0 0.00 0.05 0.05 57 1009.7
20260508234547 50 142 0.0 3.0 0.00 0.05 0.05 56 1009.6
20260508233045 51 140 1.0 4.0 0.00 0.05 0.05 53 1009.6
20260508231604 52 140 0.0 4.0 0.00 0.05 0.05 47 1009.6
20260508230056 52 177 2.0 7.0 0.00 0.05 0.05 44 1009.6
20260508224542 53 242 2.0 6.0 0.00 0.05 0.05 44 1009.6
20260508223141 53 172 3.0 7.0 0.00 0.05 0.05 44 1009.7
20260508221540 54 237 2.0 9.0 0.00 0.05 0.05 42 1009.8
20260508220042 55 176 1.0 6.0 0.00 0.05 0.05 46 1009.8
20260508214550 54 157 4.0 9.0 0.00 0.05 0.05 42 1009.9
20260508213046 55 191 3.0 9.0 0.00 0.05 0.05 41 1009.9
20260508211541 55 222 2.0 7.0 0.00 0.05 0.05 45 1009.9
20260508210035 55 167 6.0 11.0 0.00 0.05 0.05 47 1010.0
20260508204534 55 214 6.0 10.0 0.00 0.05 0.05 44 1010.0
20260508203032 55 207 3.0 9.0 0.00 0.05 0.05 46 1010.1
20260508201530 55 203 5.0 10.0 0.00 0.05 0.05 43 1010.2
20260508200127 56 188 4.0 10.0 0.00 0.05 0.05 46 1010.5
20260508194524 56 118 1.0 11.0 0.00 0.05 0.05 55 1010.7
20260508193028 55 221 4.0 8.0 0.00 0.05 0.05 52 1010.9
20260508191534 55 172 3.0 8.0 0.00 0.05 0.05 54 1011.2
20260508190028 55 192 5.0 11.0 0.00 0.05 0.05 59 1011.3
20260508184522 55 204 4.0 12.0 0.00 0.05 0.05 62 1011.4
20260508183015 54 157 6.0 10.0 0.00 0.05 0.05 59 1011.6